Newberry, SC

8:32 AM EDT on March 25, 2017 (GMT -0400)
Newberry

Weather History for KEOE - February, 2014

Change the Weather History Date:

Monday, February 24, 2014

  Actual Average (KFDW) Record (KFDW)
Temperature  
Mean Temperature 54 °F -  
Max Temperature 68 °F 57 °F 78 °F (2017)
Min Temperature 41 °F 35 °F 30 °F (2015)
Degree Days  
Heating Degree Days 10    
Growing Degree Days 4 (Base 50)    
Moisture  
Dew Point 40 °F    
Average Humidity 63    
Maximum Humidity 100    
Minimum Humidity 28    
Precipitation  
Precipitation 0.00 in - - ()
Sea Level Pressure  
Sea Level Pressure 30.06 in    
Wind  
Wind Speed 5 mph (NNW)    
Max Wind Speed 9 mph    
Max Gust Speed -    
Visibility 9 miles    
Events      
Averages and records for this station are not official NWS values.
T = Trace of Precipitation, MM = Missing Value Source: NWS Daily Summary

Daily Weather History Graph

Daily Weather History Graph

Search for Another Location

Airport or City:

Trip Planner

Search our weather history database for the weather conditions in past years. The results will help you decide how hot, cold, wet, or windy it might be!

Date:

Astronomy

Feb. 24, 2014 Rise Set
Actual Time 7:01 AM EST 6:18 PM EST
Civil Twilight 6:36 AM EST 6:43 PM EST
Nautical Twilight 6:07 AM EST 7:12 PM EST
Astronomical Twilight 5:38 AM EST 7:42 PM EST
Moon 2:51 AM EST (2/24) 1:25 PM EST (2/24)
Length of Visible Light 12h 07m
Length of Day
11h 16m
Waning Crescent, 28% of the Moon is Illuminated
Feb 24
Waning Crescent
Mar 1
New
Mar 8
First Quarter
Mar 16
Full
Mar 23
Last Quarter

Hourly Weather History & Observations

Time (EST) Temp. Windchill Dew Point Humidity Pressure Visibility Wind Dir Wind Speed Gust Speed Precip Events Conditions
12:15 AM 51.8 °F - 50.0 °F 94% 29.96 in 10.0 mi SW 6.9 mph - N/A   Clear
12:35 AM 51.8 °F - 50.0 °F 94% 29.96 in 10.0 mi SW 6.9 mph - N/A   Clear
12:55 AM 51.8 °F - 50.0 °F 94% 29.96 in 10.0 mi SW 6.9 mph - N/A   Clear
1:15 AM 51.8 °F - 50.0 °F 94% 29.96 in 10.0 mi SW 5.8 mph - N/A   Clear
1:35 AM 50.0 °F - 50.0 °F 100% 29.96 in 10.0 mi SW 6.9 mph - N/A   Clear
1:55 AM 50.0 °F - 50.0 °F 100% 29.95 in 10.0 mi WSW 5.8 mph - N/A   Clear
2:15 AM 50.0 °F - 50.0 °F 100% 29.95 in 10.0 mi WSW 5.8 mph - N/A   Clear
2:35 AM 50.0 °F - 50.0 °F 100% 29.95 in 10.0 mi WSW 4.6 mph - N/A   Clear
2:55 AM 50.0 °F - 50.0 °F 100% 29.95 in 10.0 mi SW 5.8 mph - N/A   Clear
3:15 AM 50.0 °F - 50.0 °F 100% 29.95 in 10.0 mi WSW 6.9 mph - N/A   Clear
3:35 AM 50.0 °F - 50.0 °F 100% 29.94 in 10.0 mi SW 6.9 mph - N/A   Clear
3:55 AM 46.4 °F 45.2 °F 46.4 °F 100% 29.96 in 10.0 mi NNW 3.5 mph - N/A   Clear
4:15 AM 46.4 °F 44.3 °F 46.4 °F 100% 29.97 in 10.0 mi NNW 4.6 mph - N/A   Clear
4:35 AM 44.6 °F - 44.6 °F 100% 29.98 in 10.0 mi Calm Calm - N/A   Clear
4:55 AM 44.6 °F 43.1 °F 44.6 °F 100% 29.99 in 7.0 mi West 3.5 mph - N/A   Clear
5:15 AM 44.6 °F - 44.6 °F 100% 30.00 in 1.0 mi Calm Calm - N/A   Mist
5:35 AM 42.8 °F - 42.8 °F 100% 30.01 in 1.0 mi Calm Calm - N/A   Mist
5:55 AM 42.8 °F - 42.8 °F 100% 30.03 in 4.0 mi Calm Calm - N/A   Clear
6:15 AM 42.8 °F 41.1 °F 42.8 °F 100% 30.05 in 5.0 mi North 3.5 mph - N/A   Clear
6:35 AM 42.8 °F 41.1 °F 42.8 °F 100% 30.06 in 2.5 mi North 3.5 mph - N/A   Clear
6:55 AM 42.8 °F 40.1 °F 42.8 °F 100% 30.06 in 5.0 mi NNE 4.6 mph - N/A   Clear
7:15 AM 42.8 °F 39.3 °F 42.8 °F 100% 30.07 in 10.0 mi NNE 5.8 mph - N/A   Clear
7:35 AM 41.0 °F 39.0 °F 41.0 °F 100% 30.08 in 10.0 mi NNE 3.5 mph - N/A   Clear
7:55 AM 42.8 °F 41.1 °F 42.8 °F 100% 30.09 in 10.0 mi NNE 3.5 mph - N/A   Clear
8:15 AM 48.2 °F - 44.6 °F 87% 30.10 in 10.0 mi ENE 3.5 mph - N/A   Clear
8:35 AM 50.0 °F - 42.8 °F 76% 30.11 in 10.0 mi ENE 3.5 mph - N/A   Clear
8:55 AM 51.8 °F - 41.0 °F 67% 30.11 in 10.0 mi NE 4.6 mph - N/A   Clear
9:15 AM 53.6 °F - 39.2 °F 58% 30.12 in 10.0 mi NE 5.8 mph - N/A   Clear
9:35 AM 55.4 °F - 39.2 °F 54% 30.12 in 10.0 mi NNE 6.9 mph - N/A   Clear
9:55 AM 55.4 °F - 39.2 °F 54% 30.12 in 10.0 mi NE 6.9 mph - N/A   Clear
10:15 AM 55.4 °F - 37.4 °F 51% 30.12 in 10.0 mi NE 5.8 mph - N/A   Clear
10:35 AM 57.2 °F - 35.6 °F 44% 30.12 in 10.0 mi North 3.5 mph - N/A   Clear
10:55 AM 59.0 °F - 37.4 °F 45% 30.12 in 10.0 mi NE 6.9 mph - N/A   Clear
11:15 AM 59.0 °F - 35.6 °F 42% 30.12 in 10.0 mi North 8.1 mph - N/A   Clear
11:35 AM 59.0 °F - 37.4 °F 45% 30.12 in 10.0 mi NNE 4.6 mph - N/A   Clear
11:55 AM 60.8 °F - 37.4 °F 42% 30.11 in 10.0 mi Calm Calm - N/A   Clear
12:15 PM 60.8 °F - 37.4 °F 42% 30.10 in 10.0 mi West 4.6 mph - N/A   Clear
12:35 PM 62.6 °F - 35.6 °F 37% 30.09 in 10.0 mi West 5.8 mph - N/A   Clear
12:55 PM 62.6 °F - 35.6 °F 37% 30.08 in 10.0 mi West 5.8 mph - N/A   Clear
1:15 PM 62.6 °F - 35.6 °F 37% 30.07 in 10.0 mi West 3.5 mph - N/A   Clear
1:35 PM 64.4 °F - 35.6 °F 34% 30.07 in 10.0 mi West 4.6 mph - N/A   Clear
1:55 PM 64.4 °F - 35.6 °F 34% 30.06 in 10.0 mi NNW 6.9 mph - N/A   Clear
2:15 PM 64.4 °F - 33.8 °F 32% 30.05 in 10.0 mi Calm Calm - N/A   Clear
2:35 PM 64.4 °F - 35.6 °F 34% 30.05 in 10.0 mi WSW 5.8 mph - N/A   Clear
2:55 PM 68.0 °F - 35.6 °F 30% 30.04 in 10.0 mi West 6.9 mph - N/A   Clear
3:15 PM 68.0 °F - 35.6 °F 30% 30.04 in 10.0 mi NW 5.8 mph - N/A   Clear
3:35 PM 68.0 °F - 33.8 °F 28% 30.05 in 10.0 mi West 6.9 mph - N/A   Clear
3:55 PM 68.0 °F - 33.8 °F 28% 30.05 in 10.0 mi NNW 3.5 mph - N/A   Clear
4:15 PM 68.0 °F - 35.6 °F 30% 30.06 in 10.0 mi Calm Calm - N/A   Clear
4:35 PM 68.0 °F - 33.8 °F 28% 30.06 in 10.0 mi WSW 3.5 mph - N/A   Clear
4:55 PM 68.0 °F - 33.8 °F 28% 30.06 in 10.0 mi West 4.6 mph - N/A   Clear
5:15 PM 68.0 °F - 35.6 °F 30% 30.06 in 10.0 mi SW 4.6 mph - N/A   Clear
5:35 PM 66.2 °F - 35.6 °F 32% 30.07 in 10.0 mi SW 3.5 mph - N/A   Clear
5:55 PM 64.4 °F - 35.6 °F 34% 30.07 in 10.0 mi Calm Calm - N/A   Clear
6:15 PM 60.8 °F - 37.4 °F 42% 30.07 in 10.0 mi SSE 3.5 mph - N/A   Clear
6:35 PM 59.0 °F - 37.4 °F 45% 30.07 in 10.0 mi SE 3.5 mph - N/A   Clear
6:55 PM 55.4 °F - 37.4 °F 51% 30.08 in 10.0 mi SE 3.5 mph - N/A   Clear
7:15 PM 55.4 °F - 37.4 °F 51% 30.09 in 10.0 mi ESE 3.5 mph - N/A   Clear
7:35 PM 53.6 °F - 37.4 °F 54% 30.09 in 10.0 mi SE 3.5 mph - N/A   Clear
7:55 PM 53.6 °F - 37.4 °F 54% 30.10 in 10.0 mi Calm Calm - N/A   Clear
8:15 PM 55.4 °F - 37.4 °F 51% 30.11 in 10.0 mi NNE 3.5 mph - N/A   Clear
8:35 PM 53.6 °F - 37.4 °F 54% 30.11 in 10.0 mi NE 4.6 mph - N/A   Clear
8:55 PM 51.8 °F - 37.4 °F 58% 30.11 in 10.0 mi NE 8.1 mph - N/A   Clear
9:15 PM 53.6 °F - 35.6 °F 51% 30.12 in 10.0 mi NE 6.9 mph - N/A   Clear
9:35 PM 53.6 °F - 32.0 °F 44% 30.12 in 10.0 mi NE 6.9 mph - N/A   Clear
9:55 PM 53.6 °F - 32.0 °F 44% 30.13 in 10.0 mi NE 4.6 mph - N/A   Clear
10:15 PM 51.8 °F - 32.0 °F 47% 30.12 in 10.0 mi NNE 8.1 mph - N/A   Clear
10:35 PM 51.8 °F - 32.0 °F 47% 30.12 in 10.0 mi NNE 9.2 mph - N/A   Clear
10:55 PM 51.8 °F - 32.0 °F 47% 30.12 in 10.0 mi NNE 9.2 mph - N/A   Clear
11:15 PM 51.8 °F - 32.0 °F 47% 30.12 in 10.0 mi NE 9.2 mph - N/A   Clear
11:35 PM 51.8 °F - 30.2 °F 44% 30.11 in 10.0 mi NE 9.2 mph - N/A   Clear
11:55 PM 51.8 °F - 32.0 °F 47% 30.11 in 10.0 mi NE 9.2 mph - N/A   Clear